Location: Unspecified
(33.2407°S, 0.0000°E)
Time: 20:38:29
(UTC+00:00)

Envisat - Pass Details

Date: 26 May 2019
Orbit: 764 x 766 km, 98.1° (Epoch: 18 June)

Event Time Altitude Azimuth Distance (km) Brightness Sun altitude
Exits shadow 18:12:00 16° 75° (ENE) 1,915 4.6 -14.4°
Drops below altitude 10° 18:14:23 10° 47° (NE) 2,307 5.2 -14.9°
Sets 18:17:29 0° 27° (NNE) 3,223 6.1 -15.5°
